QPF
0.01 0.01 0.01 0.00 0.00 0.00 0.00 0.00 0.00 0.00 0.00 0.00 0.00 0.00 0.00 0.00 0.00 0.00 0.00 0.00 0.00 0.00 0.00 0.00 0.00 0.00 0.00 0.00 0.00 0.00 0.00 0.00 0.00 0.00 0.00 0.00 0.00 0.00 0.01 0.01 0.01 0.01 0.01 0.01
0.01 0.02 0.01 0.00 0.00 0.00 0.00 0.00 0.00 0.00 0.00 0.00 0.00 0.00 0.00 0.00 0.00 0.00 0.00 0.00 0.00 0.00 0.00 0.00 0.00 0.00 0.00 0.00 0.00 0.00 0.00 0.00 0.00 0.00 0.00 0.00 0.00 0.00 0.01 0.01 0.01 0.01 0.01 0.02
0.01 0.02 0.02 0.01 0.00 0.00 0.00 0.00 0.00 0.00 0.00 0.00 0.00 0.00 0.00 0.00 0.00 0.00 0.00 0.00 0.00 0.00 0.00 0.00 0.00 0.00 0.00 0.00 0.00 0.00 0.00 0.00 0.00 0.00 0.00 0.00 0.00 0.00 0.00 0.01 0.01 0.01 0.01 0.02
0.00 0.01 0.02 0.01 0.01 0.00 0.00 0.00 0.00 0.00 0.00 0.00 0.00 0.00 0.00 0.00 0.00 0.00 0.00 0.00 0.00 0.00 0.00 0.00 0.00 0.00 0.00 0.00 0.00 0.00 0.00 0.00 0.00 0.00 0.00 0.00 0.00 0.00 0.01 0.01 0.01 0.01 0.01 0.01
0.00 0.01 0.01 0.00 0.00 0.00 0.00 0.00 0.00 0.00 0.00 0.00 0.00 0.00 0.00 0.00 0.00 0.00 0.00 0.00 0.00 0.00 0.00 0.00 0.00 0.00 0.00 0.00 0.00 0.00 0.00 0.00 0.00 0.00 0.00 0.00 0.01 0.01 0.01 0.01 0.01 0.01 0.01 0.01
0.00 0.00 0.00 0.00 0.00 0.00 0.00 0.00 0.00 0.00 0.00 0.00 0.00 0.00 0.00 0.00 0.00 0.00 0.00 0.00 0.00 0.00 0.00 0.00 0.00 0.00 0.00 0.00 0.00 0.00 0.00 0.00 0.00 0.00 0.00 0.01 0.01 0.01 0.01 0.01 0.01 0.01 0.01 0.02
0.00 0.00 0.00 0.00 0.01 0.00 0.00 0.00 0.00 0.00 0.00 0.00 0.00 0.00 0.00 0.00 0.00 0.00 0.00 0.00 0.00 0.00 0.00 0.00 0.00 0.00 0.00 0.00 0.00 0.00 0.00 0.00 0.00 0.01 0.01 0.01 0.01 0.01 0.01 0.02 0.02 0.02 0.02 0.02
0.00 0.00 0.00 0.00 0.00 0.00 0.00 0.00 0.00 0.00 0.00 0.00 0.00 0.00 0.00 0.00 0.00 0.00 0.00 0.00 0.00 0.00 0.00 0.00 0.00 0.00 0.00 0.00 0.00 0.00 0.00 0.00 0.00 0.01 0.00 0.00 0.01 0.01 0.01 0.02 0.02 0.02 0.02 0.02
0.00 0.00 0.00 0.00 0.00 0.00 0.00 0.00 0.00 0.00 0.00 0.00 0.00 0.00 0.00 0.00 0.00 0.00 0.00 0.00 0.00 0.00 0.00 0.00 0.00 0.00 0.00 0.00 0.00 0.00 0.00 0.00 0.01 0.01 0.01 0.01 0.01 0.01 0.01 0.01 0.02 0.02 0.02 0.02
0.00 0.00 0.00 0.00 0.00 0.00 0.00 0.00 0.00 0.00 0.00 0.00 0.00 0.00 0.00 0.00 0.00 0.00 0.00 0.00 0.00 0.00 0.00 0.00 0.00 0.00 0.00 0.00 0.00 0.00 0.00 0.00 0.01 0.01 0.01 0.01 0.01 0.01 0.01 0.01 0.01 0.01 0.01 0.02
0.00 0.00 0.00 0.00 0.00 0.00 0.00 0.00 0.00 0.00 0.00 0.00 0.00 0.00 0.00 0.00 0.00 0.00 0.00 0.00 0.00 0.00 0.00 0.00 0.00 0.00 0.00 0.00 0.00 0.00 0.00 0.01 0.01 0.01 0.01 0.01 0.01 0.01 0.01 0.01 0.01 0.01 0.01 0.01
0.00 0.00 0.00 0.00 0.00 0.00 0.00 0.00 0.00 0.00 0.00 0.00 0.00 0.00 0.00 0.00 0.00 0.00 0.00 0.00 0.00 0.00 0.00 0.00 0.00 0.00 0.00 0.00 0.00 0.00 0.01 0.01 0.00 0.01 0.01 0.01 0.01 0.01 0.01 0.01 0.00 0.01 0.01 0.01
0.00 0.00 0.00 0.00 0.00 0.00 0.00 0.00 0.00 0.00 0.00 0.00 0.00 0.00 0.00 0.00 0.00 0.00 0.00 0.00 0.00 0.00 0.00 0.00 0.00 0.00 0.00 0.00 0.00 0.01 0.01 0.01 0.01 0.00 0.01 0.01 0.01 0.02 0.02 0.01 0.01 0.01 0.01 0.01
0.00 0.00 0.00 0.00 0.00 0.00 0.00 0.00 0.00 0.00 0.00 0.00 0.00 0.00 0.00 0.00 0.00 0.00 0.00 0.00 0.00 0.00 0.00 0.00 0.00 0.00 0.00 0.00 0.00 0.00 0.01 0.01 0.01 0.01 0.01 0.01 0.01 0.02 0.02 0.02 0.02 0.01 0.01 0.01
0.00 0.00 0.00 0.00 0.00 0.00 0.00 0.00 0.00 0.00 0.00 0.00 0.00 0.00 0.00 0.00 0.00 0.00 0.00 0.00 0.00 0.00 0.00 0.00 0.00 0.00 0.00 0.00 0.00 0.00 0.00 0.01 0.00 0.01 0.01 0.01 0.01 0.01 0.02 0.02 0.02 0.02 0.02 0.01
0.00 0.00 0.00 0.00 0.00 0.00 0.00 0.00 0.00 0.00 0.00 0.00 0.00 0.00 0.00 0.00 0.00 0.00 0.00 0.00 0.00 0.00 0.00 0.00 0.00 0.00 0.00 0.00 0.00 0.00 0.01 0.01 0.01 0.01 0.01 0.01 0.01 0.01 0.02 0.02 0.02 0.02 0.02 0.02
0.00 0.00 0.00 0.00 0.00 0.00 0.00 0.00 0.00 0.00 0.00 0.00 0.00 0.00 0.00 0.00 0.00 0.00 0.00 0.00 0.00 0.00 0.00 0.00 0.00 0.00 0.00 0.00 0.00 0.00 0.01 0.01 0.00 0.01 0.01 0.01 0.01 0.01 0.01 0.02 0.02 0.01 0.01 0.02
0.01 0.00 0.00 0.00 0.00 0.00 0.00 0.00 0.00 0.00 0.00 0.00 0.00 0.00 0.00 0.00 0.00 0.00 0.00 0.00 0.00 0.00 0.00 0.00 0.00 0.00 0.00 0.00 0.00 0.00 0.00 0.01 0.00 0.00 0.01 0.01 0.01 0.01 0.01 0.02 0.01 0.01 0.01 0.02
0.00 0.00 0.00 0.00 0.00 0.00 0.00 0.00 0.00 0.00 0.00 0.00 0.00 0.00 0.00 0.00 0.00 0.00 0.00 0.00 0.00 0.00 0.00 0.00 0.00 0.00 0.00 0.00 0.00 0.00 0.00 0.00 0.00 0.00 0.00 0.01 0.01 0.01 0.01 0.01 0.01 0.01 0.02 0.02
0.00 0.00 0.00 0.00 0.00 0.00 0.00 0.00 0.00 0.00 0.00 0.00 0.00 0.00 0.00 0.00 0.00 0.00 0.00 0.00 0.00 0.00 0.00 0.00 0.00 0.00 0.00 0.00 0.00 0.00 0.00 0.00 0.01 0.00 0.00 0.00 0.01 0.01 0.01 0.01 0.01 0.02 0.02 0.03
0.00 0.00 0.00 0.00 0.00 0.00 0.00 0.00 0.00 0.00 0.00 0.00 0.00 0.00 0.00 0.00 0.00 0.00 0.00 0.00 0.00 0.00 0.00 0.00 0.00 0.00 0.00 0.00 0.00 0.00 0.00 0.00 0.00 0.01 0.00 0.00 0.00 0.01 0.01 0.01 0.01 0.01 0.01 0.03
0.01 0.01 0.01 0.01 0.01 0.01 0.00 0.00 0.00 0.00 0.00 0.00 0.00 0.00 0.00 0.00 0.00 0.00 0.00 0.00 0.00 0.00 0.00 0.00 0.00 0.00 0.00 0.00 0.00 0.00 0.00 0.00 0.00 0.00 0.00 0.00 0.00 0.01 0.01 0.01 0.01 0.01 0.01 0.02
0.02 0.02 0.02 0.02 0.02 0.01 0.01 0.00 0.00 0.00 0.00 0.00 0.00 0.00 0.00 0.00 0.00 0.00 0.00 0.00 0.00 0.00 0.00 0.00 0.00 0.00 0.00 0.00 0.00 0.00 0.00 0.00 0.00 0.00 0.00 0.00 0.01 0.00 0.01 0.01 0.02 0.02 0.01 0.01
0.03 0.03 0.02 0.03 0.03 0.02 0.01 0.01 0.01 0.01 0.00 0.00 0.00 0.00 0.00 0.00 0.00 0.00 0.00 0.00 0.00 0.00 0.00 0.00 0.00 0.00 0.00 0.00 0.00 0.00 0.00 0.00 0.00 0.00 0.00 0.00 0.00 0.01 0.01 0.01 0.01 0.01 0.01 0.01
0.04 0.03 0.02 0.03 0.03 0.02 0.02 0.02 0.01 0.01 0.01 0.01 0.00 0.01 0.01 0.00 0.00 0.01 0.00 0.00 0.00 0.00 0.00 0.00 0.00 0.00 0.00 0.00 0.00 0.00 0.00 0.00 0.00 0.00 0.00 0.00 0.00 0.00 0.01 0.01 0.01 0.01 0.01 0.01
0.03 0.03 0.03 0.02 0.02 0.02 0.02 0.02 0.02 0.02 0.02 0.01 0.01 0.01 0.01 0.01 0.01 0.01 0.01 0.01 0.00 0.00 0.00 0.00 0.00 0.00 0.00 0.00 0.00 0.00 0.00 0.00 0.00 0.00 0.00 0.00 0.00 0.00 0.01 0.01 0.01 0.01 0.01 0.01
0.02 0.02 0.02 0.01 0.01 0.02 0.02 0.02 0.03 0.03 0.03 0.02 0.02 0.02 0.02 0.02 0.01 0.01 0.01 0.01 0.01 0.01 0.01 0.00 0.00 0.00 0.00 0.00 0.00 0.00 0.00 0.00 0.00 0.00 0.00 0.01 0.01 0.01 0.01 0.01 0.01 0.02 0.01 0.01
MSLP
1013.42 1013.78 1014.26 1014.85 1015.50 1016.18 1016.81 1017.34 1017.70 1017.87 1017.85 1017.66 1017.33 1016.94 1016.52 1016.14 1015.83 1015.58 1015.40 1015.27 1015.16 1015.05 1014.91 1014.73 1014.52 1014.28 1014.02 1013.76 1013.50 1013.23 1012.94 1012.64 1012.30 1011.91 1011.49 1011.02 1010.53 1010.03 1009.53 1009.05 1008.58 1008.12 1007.69 1007.26
1013.76 1014.10 1014.51 1014.97 1015.46 1015.96 1016.43 1016.81 1017.08 1017.23 1017.24 1017.14 1016.95 1016.70 1016.42 1016.15 1015.91 1015.68 1015.49 1015.31 1015.14 1014.97 1014.78 1014.58 1014.37 1014.15 1013.92 1013.68 1013.42 1013.13 1012.81 1012.44 1012.01 1011.53 1011.01 1010.46 1009.90 1009.35 1008.82 1008.31 1007.83 1007.38 1006.95 1006.54
1014.25 1014.52 1014.82 1015.14 1015.47 1015.80 1016.09 1016.34 1016.53 1016.64 1016.68 1016.66 1016.57 1016.45 1016.30 1016.13 1015.95 1015.75 1015.56 1015.35 1015.13 1014.91 1014.68 1014.46 1014.24 1014.02 1013.80 1013.56 1013.29 1012.98 1012.61 1012.17 1011.66 1011.10 1010.49 1009.87 1009.26 1008.66 1008.11 1007.59 1007.12 1006.68 1006.27 1005.88
1014.78 1014.96 1015.14 1015.31 1015.48 1015.64 1015.79 1015.92 1016.02 1016.10 1016.16 1016.19 1016.19 1016.17 1016.12 1016.03 1015.91 1015.76 1015.56 1015.34 1015.10 1014.85 1014.60 1014.35 1014.12 1013.89 1013.66 1013.40 1013.11 1012.76 1012.33 1011.83 1011.27 1010.64 1009.98 1009.31 1008.67 1008.06 1007.50 1006.99 1006.54 1006.12 1005.74 1005.39
1015.20 1015.27 1015.32 1015.36 1015.39 1015.42 1015.45 1015.49 1015.53 1015.58 1015.64 1015.71 1015.77 1015.82 1015.84 1015.83 1015.76 1015.65 1015.48 1015.27 1015.02 1014.76 1014.49 1014.23 1013.98 1013.73 1013.48 1013.20 1012.87 1012.48 1012.01 1011.47 1010.86 1010.20 1009.52 1008.84 1008.19 1007.60 1007.06 1006.58 1006.15 1005.77 1005.43 1005.11
1015.36 1015.32 1015.27 1015.20 1015.14 1015.07 1015.03 1015.00 1015.00 1015.04 1015.10 1015.19 1015.29 1015.39 1015.47 1015.51 1015.49 1015.42 1015.28 1015.09 1014.86 1014.61 1014.34 1014.07 1013.81 1013.55 1013.27 1012.96 1012.60 1012.17 1011.68 1011.11 1010.49 1009.83 1009.15 1008.50 1007.88 1007.32 1006.82 1006.39 1006.01 1005.67 1005.36 1005.08
1015.16 1015.04 1014.91 1014.79 1014.67 1014.57 1014.49 1014.45 1014.44 1014.47 1014.54 1014.64 1014.77 1014.89 1015.01 1015.08 1015.11 1015.07 1014.98 1014.83 1014.63 1014.40 1014.15 1013.89 1013.62 1013.34 1013.04 1012.70 1012.31 1011.86 1011.35 1010.78 1010.17 1009.53 1008.90 1008.29 1007.74 1007.24 1006.80 1006.43 1006.10 1005.80 1005.53 1005.28
1014.58 1014.41 1014.26 1014.12 1014.01 1013.92 1013.86 1013.84 1013.85 1013.89 1013.98 1014.09 1014.23 1014.37 1014.50 1014.60 1014.66 1014.67 1014.62 1014.51 1014.36 1014.16 1013.94 1013.69 1013.42 1013.13 1012.81 1012.45 1012.03 1011.57 1011.06 1010.50 1009.92 1009.33 1008.76 1008.22 1007.74 1007.32 1006.95 1006.64 1006.36 1006.11 1005.88 1005.65
1013.70 1013.52 1013.38 1013.28 1013.22 1013.20 1013.20 1013.23 1013.28 1013.36 1013.47 1013.59 1013.74 1013.88 1014.02 1014.14 1014.23 1014.27 1014.26 1014.20 1014.10 1013.94 1013.75 1013.52 1013.26 1012.96 1012.62 1012.23 1011.80 1011.33 1010.82 1010.28 1009.74 1009.20 1008.70 1008.24 1007.84 1007.49 1007.20 1006.95 1006.73 1006.52 1006.31 1006.11
1012.62 1012.47 1012.38 1012.36 1012.39 1012.46 1012.55 1012.66 1012.79 1012.91 1013.05 1013.19 1013.34 1013.49 1013.63 1013.76 1013.87 1013.94 1013.97 1013.96 1013.90 1013.78 1013.62 1013.41 1013.14 1012.83 1012.47 1012.07 1011.62 1011.13 1010.63 1010.12 1009.61 1009.13 1008.69 1008.31 1007.98 1007.70 1007.47 1007.28 1007.10 1006.92 1006.75 1006.56
1011.47 1011.37 1011.37 1011.45 1011.59 1011.77 1011.98 1012.19 1012.39 1012.57 1012.75 1012.91 1013.07 1013.22 1013.36 1013.50 1013.62 1013.72 1013.79 1013.81 1013.78 1013.70 1013.56 1013.36 1013.09 1012.76 1012.38 1011.95 1011.48 1010.99 1010.49 1009.99 1009.52 1009.08 1008.70 1008.37 1008.10 1007.88 1007.70 1007.54 1007.40 1007.25 1007.09 1006.92
1010.35 1010.32 1010.40 1010.59 1010.85 1011.15 1011.47 1011.78 1012.07 1012.32 1012.54 1012.73 1012.90 1013.06 1013.21 1013.35 1013.49 1013.61 1013.70 1013.75 1013.75 1013.69 1013.56 1013.36 1013.08 1012.74 1012.33 1011.88 1011.39 1010.88 1010.38 1009.89 1009.44 1009.04 1008.69 1008.40 1008.16 1007.98 1007.82 1007.69 1007.56 1007.43 1007.29 1007.13
1009.30 1009.34 1009.51 1009.80 1010.17 1010.58 1011.00 1011.41 1011.77 1012.09 1012.36 1012.58 1012.78 1012.95 1013.12 1013.27 1013.42 1013.56 1013.67 1013.74 1013.76 1013.71 1013.58 1013.37 1013.08 1012.71 1012.29 1011.81 1011.30 1010.78 1010.28 1009.80 1009.36 1008.98 1008.65 1008.39 1008.17 1008.00 1007.85 1007.72 1007.60 1007.47 1007.33 1007.18
1008.34 1008.43 1008.67 1009.04 1009.50 1010.00 1010.51 1011.00 1011.44 1011.81 1012.13 1012.40 1012.62 1012.82 1013.01 1013.19 1013.36 1013.51 1013.64 1013.72 1013.74 1013.69 1013.56 1013.34 1013.03 1012.65 1012.20 1011.71 1011.19 1010.67 1010.17 1009.70 1009.28 1008.91 1008.60 1008.35 1008.13 1007.95 1007.80 1007.65 1007.51 1007.37 1007.22 1007.07
1007.46 1007.59 1007.88 1008.31 1008.82 1009.39 1009.96 1010.51 1011.00 1011.44 1011.81 1012.12 1012.38 1012.61 1012.83 1013.03 1013.22 1013.39 1013.53 1013.62 1013.64 1013.59 1013.45 1013.22 1012.90 1012.50 1012.05 1011.55 1011.04 1010.53 1010.05 1009.60 1009.20 1008.85 1008.55 1008.30 1008.08 1007.88 1007.70 1007.53 1007.36 1007.19 1007.01 1006.84
1006.69 1006.83 1007.15 1007.59 1008.14 1008.74 1009.34 1009.93 1010.47 1010.94 1011.35 1011.70 1012.01 1012.28 1012.53 1012.76 1012.97 1013.16 1013.31 1013.40 1013.42 1013.37 1013.22 1012.98 1012.66 1012.26 1011.81 1011.33 1010.84 1010.36 1009.90 1009.49 1009.12 1008.80 1008.52 1008.27 1008.04 1007.83 1007.62 1007.41 1007.19 1006.98 1006.77 1006.57
1006.07 1006.21 1006.51 1006.95 1007.49 1008.09 1008.70 1009.30 1009.85 1010.35 1010.79 1011.17 1011.52 1011.82 1012.10 1012.36 1012.60 1012.80 1012.96 1013.05 1013.08 1013.02 1012.87 1012.63 1012.31 1011.93 1011.50 1011.04 1010.59 1010.15 1009.75 1009.38 1009.06 1008.77 1008.51 1008.27 1008.04 1007.81 1007.57 1007.32 1007.06 1006.79 1006.54 1006.30
1005.69 1005.80 1006.07 1006.47 1006.97 1007.53 1008.11 1008.68 1009.22 1009.72 1010.17 1010.58 1010.94 1011.27 1011.58 1011.86 1012.12 1012.33 1012.50 1012.60 1012.63 1012.57 1012.43 1012.20 1011.90 1011.54 1011.14 1010.73 1010.32 1009.94 1009.59 1009.27 1009.00 1008.75 1008.53 1008.31 1008.08 1007.83 1007.57 1007.29 1006.99 1006.68 1006.38 1006.10
1005.63 1005.69 1005.90 1006.23 1006.65 1007.14 1007.66 1008.17 1008.67 1009.13 1009.56 1009.96 1010.33 1010.67 1010.99 1011.29 1011.56 1011.79 1011.97 1012.09 1012.12 1012.08 1011.95 1011.74 1011.46 1011.13 1010.78 1010.41 1010.06 1009.73 1009.44 1009.18 1008.95 1008.75 1008.55 1008.36 1008.14 1007.90 1007.62 1007.32 1006.99 1006.66 1006.33 1006.02
1005.91 1005.91 1006.03 1006.27 1006.59 1006.97 1007.39 1007.81 1008.22 1008.62 1009.00 1009.36 1009.71 1010.05 1010.37 1010.68 1010.96 1011.21 1011.41 1011.54 1011.60 1011.58 1011.48 1011.30 1011.06 1010.78 1010.46 1010.15 1009.84 1009.56 1009.31 1009.10 1008.91 1008.75 1008.58 1008.40 1008.20 1007.97 1007.70 1007.40 1007.08 1006.74 1006.40 1006.08
1006.50 1006.42 1006.45 1006.57 1006.77 1007.02 1007.29 1007.59 1007.89 1008.19 1008.49 1008.79 1009.10 1009.41 1009.72 1010.03 1010.32 1010.59 1010.82 1010.99 1011.08 1011.11 1011.05 1010.92 1010.73 1010.50 1010.23 1009.96 1009.70 1009.45 1009.24 1009.05 1008.89 1008.74 1008.60 1008.44 1008.26 1008.05 1007.80 1007.52 1007.22 1006.90 1006.58 1006.28
1007.29 1007.13 1007.06 1007.05 1007.10 1007.19 1007.32 1007.46 1007.62 1007.80 1008.00 1008.22 1008.46 1008.73 1009.02 1009.33 1009.64 1009.93 1010.20 1010.42 1010.58 1010.66 1010.68 1010.61 1010.49 1010.31 1010.10 1009.87 1009.64 1009.43 1009.23 1009.06 1008.90 1008.76 1008.62 1008.48 1008.31 1008.12 1007.91 1007.67 1007.40 1007.13 1006.86 1006.61
1008.11 1007.88 1007.70 1007.57 1007.47 1007.40 1007.36 1007.34 1007.35 1007.39 1007.47 1007.59 1007.76 1007.98 1008.25 1008.56 1008.88 1009.22 1009.54 1009.83 1010.07 1010.24 1010.34 1010.36 1010.32 1010.22 1010.07 1009.89 1009.69 1009.49 1009.30 1009.13 1008.96 1008.82 1008.67 1008.53 1008.38 1008.22 1008.04 1007.85 1007.64 1007.43 1007.22 1007.03
1008.81 1008.52 1008.24 1007.99 1007.76 1007.54 1007.34 1007.17 1007.02 1006.92 1006.88 1006.90 1006.99 1007.16 1007.40 1007.71 1008.06 1008.44 1008.83 1009.20 1009.53 1009.81 1010.02 1010.15 1010.20 1010.19 1010.11 1009.98 1009.82 1009.64 1009.46 1009.28 1009.10 1008.94 1008.79 1008.65 1008.51 1008.37 1008.22 1008.08 1007.94 1007.80 1007.66 1007.54
1009.27 1008.93 1008.59 1008.24 1007.89 1007.54 1007.21 1006.89 1006.61 1006.38 1006.23 1006.15 1006.17 1006.29 1006.50 1006.80 1007.18 1007.61 1008.07 1008.53 1008.96 1009.35 1009.68 1009.93 1010.10 1010.18 1010.19 1010.14 1010.02 1009.88 1009.70 1009.52 1009.34 1009.17 1009.01 1008.86 1008.72 1008.60 1008.49 1008.40 1008.31 1008.23 1008.17 1008.11
1009.44 1009.08 1008.69 1008.29 1007.86 1007.41 1006.97 1006.55 1006.16 1005.82 1005.57 1005.41 1005.36 1005.43 1005.62 1005.91 1006.31 1006.78 1007.30 1007.84 1008.38 1008.88 1009.33 1009.70 1009.99 1010.18 1010.29 1010.32 1010.27 1010.17 1010.03 1009.86 1009.68 1009.51 1009.34 1009.20 1009.07 1008.96 1008.88 1008.82 1008.78 1008.75 1008.74 1008.73
1009.36 1009.01 1008.61 1008.18 1007.71 1007.21 1006.70 1006.21 1005.74 1005.34 1005.01 1004.78 1004.67 1004.70 1004.85 1005.13 1005.53 1006.02 1006.59 1007.19 1007.81 1008.41 1008.96 1009.45 1009.85 1010.16 1010.37 1010.49 1010.53 1010.49 1010.40 1010.28 1010.12 1009.96 1009.81 1009.67 1009.55 1009.46 1009.39 1009.35 1009.34 1009.35 1009.36 1009.39
Thickness
5739 5746 5747 5740 5736 5731 5719 5706 5689 5687 5684 5687 5687 5683 5678 5674 5668 5663 5658 5652 5646 5640 5634 5629 5624 5619 5615 5610 5606 5602 5596 5591 5586 5582 5577 5573 5569 5566 5563 5561 5560 5559 5558 5558
5734 5745 5745 5737 5736 5731 5723 5715 5701 5691 5687 5695 5689 5682 5676 5672 5667 5660 5655 5650 5644 5638 5631 5626 5620 5615 5610 5605 5601 5596 5590 5585 5580 5575 5571 5566 5562 5558 5555 5552 5551 5549 5549 5548
5718 5731 5732 5715 5727 5725 5716 5715 5705 5690 5691 5693 5684 5680 5675 5671 5665 5659 5653 5647 5641 5634 5627 5622 5616 5611 5605 5601 5596 5590 5585 5580 5575 5570 5565 5560 5557 5552 5548 5545 5543 5541 5541 5540
5713 5715 5702 5717 5738 5732 5717 5711 5710 5702 5698 5693 5686 5681 5677 5671 5663 5657 5652 5645 5638 5631 5625 5619 5613 5607 5602 5597 5591 5586 5580 5575 5570 5565 5560 5556 5551 5547 5543 5540 5537 5535 5535 5534
5705 5702 5707 5724 5734 5727 5712 5703 5710 5702 5698 5693 5687 5678 5671 5671 5665 5658 5652 5645 5637 5631 5624 5617 5611 5605 5599 5593 5587 5582 5577 5571 5567 5562 5557 5552 5548 5544 5541 5537 5534 5532 5530 5529
5709 5702 5697 5715 5738 5739 5718 5695 5709 5704 5697 5691 5683 5664 5663 5670 5664 5658 5651 5643 5636 5629 5622 5614 5608 5602 5595 5589 5584 5578 5574 5569 5564 5559 5554 5550 5546 5542 5539 5535 5532 5530 5528 5527
5707 5702 5708 5732 5741 5732 5699 5695 5710 5705 5699 5692 5681 5673 5671 5669 5663 5656 5650 5642 5635 5627 5619 5612 5606 5599 5592 5586 5581 5577 5572 5567 5563 5558 5553 5550 5545 5541 5538 5534 5532 5529 5527 5525
5704 5697 5703 5738 5733 5717 5710 5715 5712 5706 5701 5694 5686 5681 5674 5667 5661 5654 5646 5640 5633 5623 5616 5610 5604 5597 5590 5585 5581 5576 5571 5566 5562 5558 5554 5551 5545 5541 5537 5533 5530 5527 5525 5523
5717 5716 5733 5741 5736 5732 5724 5717 5713 5706 5702 5695 5686 5679 5673 5666 5658 5652 5644 5637 5629 5621 5613 5607 5602 5595 5588 5584 5580 5575 5569 5564 5560 5557 5553 5549 5544 5540 5536 5532 5528 5525 5523 5521
5727 5732 5737 5738 5735 5731 5728 5722 5716 5710 5702 5695 5686 5679 5671 5662 5654 5648 5641 5634 5626 5619 5611 5605 5600 5595 5589 5584 5579 5573 5568 5564 5560 5556 5552 5549 5544 5540 5535 5531 5527 5524 5521 5519
5725 5731 5731 5732 5732 5729 5726 5722 5716 5710 5703 5695 5686 5678 5669 5660 5653 5646 5640 5632 5625 5617 5609 5604 5599 5593 5589 5584 5578 5573 5568 5563 5559 5555 5551 5548 5545 5540 5536 5532 5527 5523 5521 5518
5723 5732 5727 5726 5731 5730 5723 5718 5713 5707 5700 5694 5686 5677 5669 5659 5652 5645 5638 5631 5623 5616 5609 5603 5598 5593 5588 5583 5578 5572 5568 5563 5559 5556 5552 5549 5545 5542 5540 5535 5532 5528 5524 5520
5746 5745 5739 5737 5732 5730 5723 5718 5713 5707 5699 5690 5684 5677 5668 5659 5652 5645 5637 5630 5622 5615 5609 5603 5597 5592 5588 5583 5578 5573 5568 5564 5560 5557 5553 5550 5547 5542 5540 5538 5536 5532 5528 5524
5753 5745 5734 5732 5728 5728 5723 5718 5712 5705 5698 5690 5682 5674 5666 5658 5650 5643 5636 5630 5623 5615 5609 5602 5597 5592 5588 5583 5579 5574 5570 5567 5563 5559 5555 5552 5549 5545 5542 5538 5536 5534 5533 5530
5749 5746 5738 5734 5729 5724 5720 5714 5705 5698 5692 5685 5679 5671 5664 5656 5648 5642 5636 5629 5622 5614 5608 5602 5596 5592 5588 5584 5579 5575 5571 5568 5564 5561 5558 5554 5551 5548 5545 5543 5539 5537 5535 5533
5743 5740 5735 5729 5723 5720 5715 5709 5700 5694 5688 5682 5675 5669 5663 5656 5648 5641 5635 5628 5620 5613 5607 5601 5595 5592 5588 5584 5579 5575 5572 5571 5568 5563 5560 5557 5554 5551 5548 5545 5543 5540 5538 5536
5734 5727 5724 5721 5719 5715 5712 5707 5700 5694 5687 5680 5674 5668 5661 5653 5645 5639 5633 5627 5620 5614 5607 5601 5596 5592 5588 5584 5579 5575 5572 5570 5570 5565 5561 5558 5555 5553 5551 5548 5546 5544 5542 5541
5741 5736 5732 5726 5720 5714 5709 5705 5699 5693 5686 5680 5673 5665 5657 5650 5643 5637 5631 5626 5619 5613 5607 5601 5596 5592 5588 5584 5579 5575 5572 5570 5569 5566 5563 5560 5558 5555 5553 5551 5548 5547 5545 5544
5734 5730 5726 5722 5718 5713 5707 5701 5696 5691 5685 5678 5670 5662 5656 5650 5643 5636 5630 5623 5617 5611 5606 5602 5597 5591 5587 5583 5580 5575 5573 5571 5569 5567 5565 5563 5560 5557 5555 5552 5550 5549 5547 5545
5724 5722 5718 5715 5712 5706 5701 5697 5692 5686 5681 5675 5667 5660 5653 5648 5642 5635 5628 5621 5615 5610 5606 5601 5595 5590 5586 5582 5580 5575 5573 5571 5569 5566 5565 5562 5560 5558 5556 5554 5553 5551 5549 5547
5710 5709 5707 5705 5702 5699 5696 5692 5686 5681 5676 5671 5664 5658 5652 5646 5641 5634 5626 5619 5615 5610 5604 5600 5594 5589 5584 5580 5578 5575 5572 5570 5567 5565 5563 5561 5559 5557 5555 5554 5554 5552 5550 5549
5695 5695 5694 5693 5690 5687 5686 5684 5680 5676 5671 5665 5661 5656 5649 5643 5637 5631 5626 5620 5615 5609 5602 5597 5593 5589 5584 5580 5576 5573 5571 5568 5566 5563 5562 5560 5558 5556 5555 5554 5553 5552 5550 5549
5679 5679 5678 5678 5676 5676 5675 5674 5672 5669 5665 5661 5657 5652 5646 5641 5634 5627 5620 5617 5612 5606 5600 5595 5591 5587 5583 5578 5574 5571 5569 5566 5563 5561 5559 5557 5556 5555 5553 5552 5551 5550 5549 5548
5663 5663 5664 5664 5662 5661 5660 5661 5661 5660 5659 5656 5653 5649 5643 5635 5630 5626 5622 5616 5609 5603 5597 5592 5589 5584 5580 5575 5572 5568 5565 5563 5560 5558 5556 5555 5554 5553 5552 5550 5549 5548 5547 5547
5649 5651 5652 5650 5647 5647 5649 5651 5651 5650 5649 5647 5646 5643 5639 5634 5628 5623 5616 5610 5605 5598 5593 5589 5585 5581 5576 5572 5569 5565 5562 5559 5557 5555 5553 5552 5550 5549 5548 5547 5546 5545 5544 5543
5636 5636 5638 5638 5637 5638 5639 5638 5638 5639 5638 5636 5635 5634 5632 5628 5623 5616 5610 5605 5600 5594 5589 5584 5580 5576 5572 5569 5566 5562 5559 5556 5554 5552 5550 5548 5546 5545 5544 5543 5542 5541 5540 5539
5620 5621 5622 5623 5626 5627 5628 5627 5627 5628 5628 5627 5625 5625 5623 5619 5615 5609 5604 5598 5594 5589 5584 5579 5575 5571 5567 5564 5561 5557 5554 5551 5549 5547 5545 5543 5541 5540 5539 5538 5536 5535 5534 5534